Location: Palomar Mountain Lodge
(33.3110°N, 116.8495°W)
Time: 11:44:36
(UTC-08:00)

Helios 1B rocket - Pass Details

Date: 19 May 2017
Orbit: 576 x 587 km, 98.2° (Epoch: 17 December)

Event Time Altitude Azimuth Distance (km) Brightness Sun altitude
Rises 20:17:19 0° 22° (NNE) 2,800 6.0 -7.1°
Reaches altitude 10° 20:19:36 10° 30° (NNE) 1,899 5.1 -7.5°
Maximum altitude 20:23:26 38° 99° (E) 896 2.9 -8.2°
Drops below altitude 10° 20:27:16 10° 168° (SSE) 1,894 4.7 -8.9°
Sets 20:29:32 0° 176° (S) 2,791 5.6 -9.3°
